Location: ??????
(55.2000°N, 38.3000°E)
Time: 18:00:38
(UTC+00:00)

NOSS 2-3 (E) - Pass Details

Date: 15 November 2025
Orbit: 492 x 1706 km, 63.3° (Epoch: 24 April)

Event Time Altitude Azimuth Distance (km) Brightness Sun altitude
Exits shadow 04:05:48 - 310° (NW) 2,167 5.7 -7.7°
Reaches altitude 10° 04:06:06 10° 311° (NW) 2,050 5.6 -7.6°
Maximum altitude 04:10:42 69° 35° (NE) 830 4.3 -7.0°
Drops below altitude 10° 04:16:52 10° 119° (ESE) 2,720 8.7 -6.2°
Sets 04:19:53 0° 122° (ESE) 3,870 10.1 -5.8°
